COSMOS 1275 DEB, 39957

Orbit data source: Space-Track

COSMOS 1275 DEB, 39957 is space debris in LEO originally from a launch on Thu, 04 Jun 1981 UTC launched from the Plesetsk Missile And Space Complex (PKMTR). Debris objects in space refer to the collection of defunct objects orbiting the Earth. Examples of debris include non-operational satellites, rocket bodies, and fragments generated from explosions, collisions, or faulty payload assembly.

Loading next visibility...
Identifier
39957, 1981-053NT
Orbit
LEO
Country
Flag of CISCIS
Related business
Manufacturer
Unknown
Mission
Spacecraft
Bus & Motor
Unknown
Mass
Unknown
Launch date (UTC)
1981-06-04 (45 years ago)
Launch vehicle
Unknown
Launch site
Plesetsk Missile And Space Complex (PKMTR)
Object type
Payload
Rocket body
Debris
Shape & HBR
Unknown shape, 0.1 m
Radar Cross Section
Small (<0.1 m²)

Expand to show TLE details & history
Last TLE update: 23 hours ago

TLE from 23 hours ago
0 COSMOS 1275 DEB
1 39957U 81053NT  26145.51786465  .00000057  00000-0  44345-4 0  9996
2 39957  82.9272 232.1562 0037598  16.4397   1.0924 13.74678493600530
Epoch: 2026-05-25T12:25Z
TLE epoch observation values (Epoch: 2026-05-25T12:25:43.505Z)
Latitude
17.39131°
Longitude
164.83598°
Altitude
957.454 km
Speed
7.388 km/s
True Right ascension
15h 37m 29s
True Declination
17° 17' 46"
Sunlit
Object was in full shadow at epoch
Visualization orbit readout
Latitude
Unknown
Longitude
Unknown
Altitude
Unknown
Speed
Unknown
Apparent Right ascension
Unknown
Apparent Declination
Unknown
Sunlit
N/A
Visualization observer readout
Local Sidereal Time
20:12:26
Azimuth
Unknown
Elevation
Unknown
Doppler factor
Unknown
Orbital elements
Apogee altitude
1,007.637 km
Perigee altitude
952.307 km
Semi-major axis
7,358.109 km
Eccentricity
0.00376
Inclination
82.9272°
RAAN
232.1562°
Arg. of periapsis
16.4397°
True anomaly
1.10065°
Mean anomaly
1.0924°
Eccentric anomaly
1.09652°
Mean motion
3.4387 °/min
Orbital period
104.69 mins
BSTAR
0.000044345
Loading maneuver chart data...
Computing Atmospheric mass density...
Loading historical data...
Loading historical data...
Loading historical data...
Loading historical data...
Loading historical data...
Loading historical data...
Loading historical data...

Documentation

Showing up to 5 results
|